Location: Zagreb
(45.8000°N, 16.0000°E)
Time: 02:44:30
(UTC+02:00)

Tiros 1 despin weight - Visible Passes

Search period start: 14 August 2020 00:00
Search period end: 24 August 2020 00:00
Orbit: 594 x 642 km, 48.2° (Epoch: 13 August)

Date Brightness Start Highest point End Pass type
(mag) Time Alt. Az. Time Alt. Az. Time Alt. Az.
14 Aug ? 04:47:24 10° SSE 04:48:57 12° SE 04:50:31 10° ESE visible
15 Aug ? 05:01:35 10° S 05:05:03 21° SE 05:08:28 10° E visible
16 Aug ? 05:17:04 10° SSW 05:21:16 36° SE 05:25:24 10° E visible
17 Aug ? 03:55:04 13° SSE 03:56:41 15° SE 03:59:20 10° E visible
18 Aug ? 04:10:54 20° S 04:12:49 27° SE 04:16:38 10° E visible
19 Aug ? 04:26:41 24° SSW 04:29:04 44° SSE 04:33:24 10° ENE visible
20 Aug ? 03:05:22 19° ESE 03:05:22 19° ESE 03:07:43 10° E visible
20 Aug ? 04:42:25 21° SW 04:45:27 69° SSE 04:49:59 10° ENE visible
21 Aug ? 03:21:04 32° SE 03:21:04 32° SE 03:24:43 10° E visible
21 Aug ? 04:58:07 15° WSW 05:01:55 86° NNW 05:06:29 10° ENE visible
22 Aug ? 03:36:44 53° SSE 03:36:54 54° SSE 03:41:23 10° ENE visible
22 Aug ? 05:13:52 10° W 05:18:28 70° N 05:23:00 10° ENE visible
23 Aug ? 02:15:21 13° E 02:15:21 13° E 02:15:55 10° E visible
23 Aug ? 03:52:23 56° SW 03:53:20 80° SSE 03:57:54 10° ENE visible
23 Aug ? 05:30:29 10° W 05:35:03 64° N 05:39:34 10° E visible
